Powrót do katalogu

STARLINK-4512

AktywnyŁącznośćVLEO
NORAD 53398·PAYLOAD·🇺🇸 United States

Wystrzelony Aug 10, 2022 z Cape Canaveral Space Force Station

Loading…

Następne Przeloty (najbliższe 24 godziny)

TLE

ŚwieżeSource: CelesTrak SupGP

Epoka: Sep 14, 2026, 20:58 UTC

1 53398C 22097L   26257.87409722 -.00026666  00000+0 -76303-3 0  2575
2 53398  53.1595 347.9687 0000907  85.9234 315.6111 15.35408672    19

Śledź STARLINK-4512 w czasie rzeczywistym z AllMySat

Download on the App Store